Easton, MD

5:32 AM EST on November 18, 2017 (GMT -0500)
Easton / Newnam

Weather History for KESN - November, 2011

Change the Weather History Date:

Sunday, November 13, 2011

  Actual Average Record
Temperature  
Mean Temperature 53 °F -  
Max Temperature 62 °F 58 °F 77 °F (1955)
Min Temperature 44 °F 41 °F 26 °F (1957)
Degree Days  
Heating Degree Days 12    
Growing Degree Days 3 (Base 50)    
Moisture  
Dew Point 39 °F    
Average Humidity 63    
Maximum Humidity 81    
Minimum Humidity 39    
Precipitation  
Precipitation 0.00 in - - ()
Sea Level Pressure  
Sea Level Pressure 30.13 in    
Wind  
Wind Speed 9 mph (SSW)    
Max Wind Speed 17 mph    
Max Gust Speed 28 mph    
Visibility 10 miles    
Events      
Averages and records for this station are not official NWS values.
T = Trace of Precipitation, MM = Missing Value Source: NWS Daily Summary

Daily Weather History Graph

Daily Weather History Graph

Search for Another Location

Airport or City:

Trip Planner

Search our weather history database for the weather conditions in past years. The results will help you decide how hot, cold, wet, or windy it might be!

Date:

Astronomy

Nov. 13, 2011 Rise Set
Actual Time 6:44 AM EST 4:52 PM EST
Civil Twilight 6:15 AM EST 5:20 PM EST
Nautical Twilight 5:43 AM EST 5:52 PM EST
Astronomical Twilight 5:12 AM EST 6:24 PM EST
Moon 7:00 PM EST (11/13) 9:13 AM EST (11/13)
Length of Visible Light 11h 04m
Length of Day
10h 08m
Waning Gibbous, 93% of the Moon is Illuminated
Nov 13
Waning Gibbous
Nov 18
Last Quarter
Nov 25
New
Dec 2
First Quarter
Dec 10
Full

Hourly Weather History & Observations

Time (EST) Temp. Windchill Dew Point Humidity Pressure Visibility Wind Dir Wind Speed Gust Speed Precip Events Conditions
12:15 AM 48.2 °F - 39.2 °F 71% 30.19 in 10.0 mi South 6.9 mph - N/A   Clear
12:33 AM 48.2 °F - 39.2 °F 71% 30.18 in 10.0 mi South 6.9 mph - N/A   Clear
12:54 AM 46.4 °F 42.9 °F 39.2 °F 76% 30.18 in 10.0 mi South 6.9 mph - N/A   Clear
1:12 AM 48.2 °F - 39.2 °F 71% 30.18 in 10.0 mi South 8.1 mph - N/A   Clear
1:30 AM 48.2 °F - 39.2 °F 71% 30.18 in 10.0 mi South 8.1 mph - N/A   Clear
1:51 AM 46.4 °F 42.9 °F 39.2 °F 76% 30.18 in 10.0 mi South 6.9 mph - N/A   Clear
2:09 AM 46.4 °F 43.5 °F 39.2 °F 76% 30.18 in 10.0 mi South 5.8 mph - N/A   Clear
2:30 AM 46.4 °F 43.5 °F 41.0 °F 81% 30.18 in 10.0 mi South 5.8 mph - N/A   Clear
2:48 AM 46.4 °F 43.5 °F 41.0 °F 81% 30.19 in 10.0 mi South 5.8 mph - N/A   Clear
3:09 AM 44.6 °F 41.4 °F 39.2 °F 81% 30.18 in 10.0 mi SSE 5.8 mph - N/A   Clear
3:27 AM 44.6 °F 42.2 °F 39.2 °F 81% 30.18 in 10.0 mi SSE 4.6 mph - N/A   Clear
3:48 AM 44.6 °F 42.2 °F 39.2 °F 81% 30.18 in 10.0 mi SSE 4.6 mph - N/A   Clear
4:06 AM 44.6 °F 40.7 °F 39.2 °F 81% 30.18 in 10.0 mi South 6.9 mph - N/A   Clear
4:24 AM 44.6 °F 41.4 °F 37.4 °F 76% 30.18 in 10.0 mi South 5.8 mph - N/A   Clear
4:45 AM 44.6 °F 41.4 °F 37.4 °F 76% 30.18 in 10.0 mi South 5.8 mph - N/A   Clear
5:03 AM 46.4 °F 42.9 °F 37.4 °F 71% 30.18 in 10.0 mi South 6.9 mph - N/A   Clear
5:15 AM 44.6 °F 40.2 °F 37.4 °F 76% 30.18 in 10.0 mi South 8.1 mph - N/A   Clear
5:50 AM 44.6 °F 41.4 °F 39.2 °F 81% 30.18 in 7.0 mi South 5.8 mph - N/A   Scattered Clouds
6:50 AM 44.6 °F 41.4 °F 37.4 °F 76% 30.19 in 10.0 mi SSW 5.8 mph - N/A   Scattered Clouds
7:50 AM 50.0 °F - 39.2 °F 66% 30.18 in 10.0 mi South 8.1 mph - N/A   Scattered Clouds
8:47 AM 55.4 °F - 39.2 °F 54% 30.19 in 10.0 mi SSW 10.4 mph - N/A   Mostly Cloudy
9:47 AM 57.2 °F - 39.2 °F 51% 30.18 in 10.0 mi SSW 11.5 mph 17.3 mph N/A   Mostly Cloudy
10:50 AM 59.0 °F - 39.2 °F 48% 30.18 in 10.0 mi SW 15.0 mph 27.6 mph N/A   Mostly Cloudy
11:45 AM 59.0 °F - 37.4 °F 45% 30.13 in 10.0 mi SSW 15.0 mph 24.2 mph N/A   Overcast
12:50 PM 62.6 °F - 37.4 °F 39% 30.09 in 10.0 mi SW 16.1 mph 23.0 mph N/A   Scattered Clouds
1:50 PM 62.6 °F - 37.4 °F 39% 30.08 in 10.0 mi SSW 15.0 mph 25.3 mph N/A   Mostly Cloudy
2:50 PM 60.8 °F - 41.0 °F 48% 30.07 in 10.0 mi SSW 15.0 mph 23.0 mph N/A   Mostly Cloudy
3:50 PM 59.0 °F - 41.0 °F 51% 30.06 in 10.0 mi SSW 12.7 mph - N/A   Mostly Cloudy
4:50 PM 59.0 °F - 39.2 °F 48% 30.06 in 10.0 mi South 12.7 mph 17.3 mph N/A   Mostly Cloudy
5:50 PM 59.0 °F - 39.2 °F 48% 30.06 in 10.0 mi SSW 12.7 mph 18.4 mph N/A   Mostly Cloudy
6:50 PM 59.0 °F - 37.4 °F 45% 30.06 in 10.0 mi SW 16.1 mph 23.0 mph N/A   Mostly Cloudy
7:53 PM 59.0 °F - 37.4 °F 45% 30.07 in 10.0 mi SW 15.0 mph 23.0 mph N/A   Mostly Cloudy
8:53 PM 57.2 °F - 39.2 °F 51% 30.08 in 10.0 mi SW 15.0 mph 20.7 mph N/A   Mostly Cloudy
9:27 PM 57.2 °F - 37.4 °F 48% 30.07 in 10.0 mi SSW 15.0 mph 20.7 mph N/A   Clear
9:48 PM 57.2 °F - 39.2 °F 51% 30.08 in 10.0 mi SSW 15.0 mph 20.7 mph N/A   Clear
10:06 PM 57.2 °F - 39.2 °F 51% 30.07 in 10.0 mi SW 15.0 mph - N/A   Clear
10:27 PM 57.2 °F - 41.0 °F 55% 30.06 in 10.0 mi SSW 16.1 mph 20.7 mph N/A   Clear
10:45 PM 57.2 °F - 41.0 °F 55% 30.06 in 10.0 mi SSW 15.0 mph - N/A   Clear
11:06 PM 55.4 °F - 41.0 °F 58% 30.06 in 10.0 mi SSW 17.3 mph - N/A   Clear
11:24 PM 57.2 °F - 42.8 °F 59% 30.06 in 10.0 mi SSW 16.1 mph 23.0 mph N/A   Clear
11:45 PM 55.4 °F - 42.8 °F 63% 30.06 in 10.0 mi SSW 12.7 mph 21.9 mph N/A   Clear